Pagrindinis puslapis
METAR-TAF:

METAR-TAF

Oro uostai :

Clines Corners, Naujoji Meksika, Jungtinės Amerikos Valstijos

platuma: 35-00N, ilguma: 105-40W, Aukštis: 2160 m

Dabartinis oras

Ataskaita buvo paskelbta 12 minutes, ne 12:53 UTC
Vėjas 14 kt iš Šiaurės Vakarų
Temperatūra 1°C
Drėgmė 55%
Slėgis 1023 hPa
Matomumas: 16.1 km
Giedras dangus

METAR: KCQC 301253Z AUTO 32014KT 10SM CLR 01/M07 A3020 RMK AO2 SLP209 T00111067

Laikas: 06:05 (13:05 UTC)


TAF: trūkstamas

Orai ataskaitas ir orų prognozės (METAR, TAF).

turimą stotys yra geltonos ir raudonos taškus žemėlapyje.

Perkelti pele per norėdami pamatyti stoties vardą.

Tada spustelėkite, norėdami matyti oro stebėjimo ir prognozės.

Norėdami pakeisti žemėlapį: spustelėkite ant žalios mygtukų su juodo kryžiaus žemyn,; žalią mygtuką su brūkšneliu, jei norite nutolinti; arba žalių rodyklių gretimoms žemėlapius.


METAR-TAF: